Sable Island, Nova Scotia

7:36 AM ADT on October 22, 2017 (GMT -0300)
Sable Island

Weather History for CWSA - November, 2012

Change the Weather History Date:

Thursday, November 1, 2012

  Actual Average Record
Temperature  
Mean Temperature 60 °F -  
Max Temperature 62 °F 49 °F 62 °F (2000)
Min Temperature 57 °F 40 °F 39 °F (2011)
Degree Days  
Heating Degree Days 6    
Growing Degree Days 10 (Base 50)    
Moisture  
Dew Point 58 °F    
Average Humidity 93    
Maximum Humidity 100    
Minimum Humidity 82    
Precipitation  
Precipitation 1.06 in 0.19 in - ()
Sea Level Pressure  
Sea Level Pressure 29.66 in    
Wind  
Wind Speed 15 mph ()    
Max Wind Speed 32 mph    
Max Gust Speed 40 mph    
Visibility 1.9 miles    
Events Rain    
Averages and records for this station are not official NWS values.
T = Trace of Precipitation, MM = Missing Value Source: Averaged Metar Reports

Daily Weather History Graph

Daily Weather History Graph

Search for Another Location

Airport or City:

Trip Planner

Search our weather history database for the weather conditions in past years. The results will help you decide how hot, cold, wet, or windy it might be!

Date:

Astronomy

Nov. 01, 2012 Rise Set
Actual Time 7:36 AM ADT 5:49 PM ADT
Civil Twilight 7:06 AM ADT 6:19 PM ADT
Nautical Twilight 6:32 AM ADT 6:53 PM ADT
Astronomical Twilight 5:59 AM ADT 7:27 PM ADT
Moon 7:38 PM ADT (11/1) 10:09 AM ADT (11/1)
Length of Visible Light 11h 12m
Length of Day
10h 12m
Waning Gibbous, 93% of the Moon is Illuminated
Nov 1
Waning Gibbous
Nov 6
Last Quarter
Nov 13
New
Nov 20
First Quarter
Nov 28
Full

Hourly Weather History & Observations

Time (ADT) Temp. Dew Point Humidity Pressure Visibility Wind Dir Wind Speed Gust Speed Precip Events Conditions
12:00 AM 60 °F 58 °F 92% 29.75 in 2 mi SE 19.6 mph - - Rain Light Rain
12:00 AM 60.8 °F 59.0 °F 94% 29.75 in 2.1 mi SE 20.7 mph - N/A Rain Light Rain
12:04 AM 60.8 °F 59.0 °F 94% 29.74 in 2.1 mi SE 18.4 mph 25.3 mph N/A   Overcast
12:07 AM 60.8 °F 59.0 °F 94% 29.74 in 2.1 mi SE 17.3 mph 25.3 mph N/A Rain Light Rain
12:12 AM 60.8 °F 59.0 °F 94% 29.74 in 1.2 mi SE 25.3 mph - N/A Rain Light Rain
12:13 AM 60.8 °F 59.0 °F 94% 29.75 in 1.1 mi SE 23.0 mph 28.8 mph N/A Rain Light Rain
12:14 AM 60.8 °F 59.0 °F 94% 29.75 in 1.0 mi SE 18.4 mph 28.8 mph N/A Rain Rain
12:15 AM 60.8 °F 59.0 °F 94% 29.74 in 0.6 mi SE 15.0 mph 28.8 mph N/A Rain Rain
12:30 AM 60.8 °F 59.0 °F 94% 29.73 in 1.0 mi ESE 15.0 mph 27.6 mph N/A Rain Heavy Rain
12:42 AM 60.8 °F 59.0 °F 94% 29.72 in 1.8 mi SE 15.0 mph 23.0 mph N/A Rain Light Rain
12:43 AM 60.8 °F 59.0 °F 94% 29.72 in 1.8 mi SE 15.0 mph 23.0 mph N/A Rain Light Rain
12:45 AM 60.8 °F 59.0 °F 94% 29.72 in 1.8 mi SE 16.1 mph 21.9 mph N/A Rain Light Rain
12:54 AM 60.8 °F 59.0 °F 94% 29.72 in 1.5 mi SE 21.9 mph 27.6 mph N/A Rain Light Rain
12:55 AM 60.8 °F 59.0 °F 94% 29.72 in 1.4 mi SE 20.7 mph 27.6 mph N/A Rain Light Rain
1:00 AM 60.8 °F 59.0 °F 94% 29.72 in 1.2 mi SE 20.7 mph 27.6 mph N/A   Overcast
1:11 AM 60.8 °F 59.0 °F 94% 29.72 in 1.4 mi SE 19.6 mph - N/A   Overcast
1:13 AM 60.8 °F 59.0 °F 94% 29.71 in 2.4 mi SE 19.6 mph 25.3 mph N/A   Overcast
2:00 AM 60.8 °F 59.0 °F 94% 29.72 in 1.8 mi SE 16.1 mph - N/A   Overcast
2:12 AM 60.8 °F 59.0 °F 94% 29.70 in 2.0 mi SSE 18.4 mph - N/A   Mostly Cloudy
2:19 AM 60.8 °F 59.0 °F 94% 29.70 in 2.1 mi SSE 19.6 mph - N/A   Mostly Cloudy
2:50 AM 60.8 °F 59.0 °F 94% 29.69 in 2.5 mi South 18.4 mph - N/A Rain Light Rain
2:51 AM 60.8 °F 59.0 °F 94% 29.69 in 2.5 mi South 18.4 mph - N/A Rain Light Rain
2:54 AM 60.8 °F 59.0 °F 94% 29.69 in 3.0 mi South 18.4 mph - N/A Rain Light Rain
3:00 AM 61 °F 59 °F 92% 29.69 in 3 mi South 18.4 mph - -   Unknown Precipitation
3:00 AM 60.8 °F 59.0 °F 94% 29.69 in 3.0 mi South 18.4 mph - N/A Rain Light Rain
3:10 AM 60.8 °F 59.0 °F 94% 29.69 in 3.5 mi South 20.7 mph - N/A   Overcast
3:35 AM 60.8 °F 59.0 °F 94% 29.69 in 3.0 mi South 19.6 mph - N/A   Mostly Cloudy
3:59 AM 60.8 °F 59.0 °F 94% 29.69 in 3.0 mi South 15.0 mph - N/A   Scattered Clouds
4:00 AM 60.8 °F 59.0 °F 94% 29.69 in 3.0 mi South 15.0 mph - N/A   Scattered Clouds
4:06 AM 59.0 °F 57.2 °F 94% 29.69 in 2.5 mi South 15.0 mph - N/A   Partly Cloudy
5:00 AM 59.0 °F 57.2 °F 94% 29.70 in 2.1 mi South 11.5 mph 17.3 mph N/A   Partly Cloudy
5:54 AM 59.0 °F 57.2 °F 94% 29.71 in 1.4 mi SSE 11.5 mph - N/A   Mostly Cloudy
6:00 AM 59 °F 58 °F 93% 29.71 in 1 mi SSE 11.5 mph - -  
6:00 AM 59.0 °F 57.2 °F 94% 29.71 in 1.4 mi SSE 10.4 mph - N/A   Mostly Cloudy
6:06 AM 59.0 °F 57.2 °F 94% 29.70 in 1.2 mi SSE 12.7 mph - N/A   Overcast
6:23 AM 59.0 °F 57.2 °F 94% 29.71 in 1.5 mi SSE 12.7 mph - N/A   Overcast
7:00 AM 59.0 °F 57.2 °F 94% 29.70 in 1.5 mi South 12.7 mph - N/A   Overcast
7:35 AM 59.0 °F 59.0 °F 100% 29.70 in 2.0 mi South 11.5 mph - N/A   Partly Cloudy
8:00 AM 60.8 °F 59.0 °F 94% 29.70 in 2.1 mi South 10.4 mph - N/A   Partly Cloudy
8:43 AM 59.0 °F 59.0 °F 100% 29.71 in 1.4 mi South 10.4 mph - N/A   Clear
9:00 AM 60 °F 59 °F 96% 29.71 in 1 mi South 10.4 mph - -  
9:00 AM 60.8 °F 59.0 °F 94% 29.71 in 1.5 mi South 9.2 mph - N/A   Clear
9:20 AM 60.8 °F 59.0 °F 94% 29.71 in 1.5 mi South 10.4 mph - N/A   Overcast
9:25 AM 60.8 °F 60.8 °F 100% 29.71 in 2.0 mi South 12.7 mph - N/A   Mostly Cloudy
9:43 AM 60.8 °F 59.0 °F 94% 29.71 in 2.1 mi South 9.2 mph - N/A   Overcast
9:51 AM 60.8 °F 60.8 °F 100% 29.71 in 2.1 mi South 9.2 mph - N/A   Mostly Cloudy
9:58 AM 60.8 °F 59.0 °F 94% 29.72 in 2.1 mi South 9.2 mph - N/A   Mostly Cloudy
10:00 AM 60.8 °F 59.0 °F 94% 29.72 in 2.0 mi South 10.4 mph - N/A   Overcast
11:00 AM 60.8 °F 59.0 °F 94% 29.72 in 2.5 mi SSE 9.2 mph - N/A   Clear
11:05 AM 62.6 °F 59.0 °F 88% 29.71 in 2.5 mi SSE 9.2 mph - N/A   Mostly Cloudy
11:26 AM 60.8 °F 59.0 °F 94% 29.71 in 2.1 mi SSE 9.2 mph - N/A   Scattered Clouds
12:00 PM 61 °F 58 °F 87% 29.71 in 2 mi SSE 11.5 mph - -  
12:00 PM 60.8 °F 59.0 °F 94% 29.71 in 2.5 mi SSE 11.5 mph - N/A   Clear
1:00 PM 60.8 °F 59.0 °F 94% 29.66 in 2.0 mi SE 10.4 mph - N/A   Partly Cloudy
1:20 PM 60.8 °F 59.0 °F 94% 29.63 in 1.5 mi SE 10.4 mph - N/A Rain Light Rain
1:33 PM 60.8 °F 59.0 °F 94% 29.63 in 1.6 mi SE 9.2 mph - N/A   Partly Cloudy
2:00 PM 60.8 °F 59.0 °F 94% 29.64 in 2.0 mi SSE 12.7 mph - N/A   Partly Cloudy
3:00 PM 61 °F 59 °F 91% 29.63 in 2 mi SE 13.8 mph - -  
3:00 PM 60.8 °F 59.0 °F 94% 29.63 in 2.0 mi SSE 13.8 mph - N/A   Partly Cloudy
3:56 PM 62.6 °F 59.0 °F 88% 29.63 in 3.0 mi SSE 11.5 mph - N/A   Clear
4:00 PM 62.6 °F 59.0 °F 88% 29.63 in 3.0 mi SSE 11.5 mph - N/A   Clear
5:00 PM 59.0 °F 57.2 °F 94% 29.63 in 3.0 mi SSE 9.2 mph - N/A   Clear
6:00 PM 58 °F 56 °F 90% 29.62 in 3 mi SSE 11.5 mph - -  
6:00 PM 59.0 °F 55.4 °F 88% 29.62 in 3.0 mi SSE 11.5 mph - N/A   Clear
7:00 PM 59.0 °F 55.4 °F 88% 29.62 in 3.0 mi SE 11.5 mph - N/A   Clear
7:32 PM 57.2 °F 55.4 °F 94% 29.62 in 2.5 mi SE 12.7 mph - N/A   Clear
8:00 PM 59.0 °F 57.2 °F 94% 29.62 in 2.5 mi SE 12.7 mph - N/A   Clear
9:00 PM 59 °F 57 °F 90% 29.60 in 2 mi SE 12.7 mph - -  
9:00 PM 59.0 °F 57.2 °F 94% 29.60 in 2.2 mi SE 12.7 mph - N/A   Clear
9:16 PM 59.0 °F 57.2 °F 94% 29.60 in 2.2 mi SSE 15.0 mph - N/A Rain Light Rain
9:28 PM 60.8 °F 57.2 °F 88% 29.61 in 1.2 mi SSE 18.4 mph - N/A Rain Rain
9:32 PM 60.8 °F 59.0 °F 94% 29.60 in 1.0 mi South 17.3 mph - N/A Rain Heavy Rain
9:33 PM 60.8 °F 59.0 °F 94% 29.60 in 1.0 mi South 18.4 mph - N/A Rain Heavy Rain
9:34 PM 59.0 °F 57.2 °F 94% 29.60 in 0.8 mi SSW 24.2 mph 39.1 mph N/A Rain Heavy Rain
9:35 PM 59.0 °F 57.2 °F 94% 29.59 in 0.6 mi WSW 24.2 mph 39.1 mph N/A Rain Heavy Rain
9:36 PM 59.0 °F 57.2 °F 94% 29.58 in 0.6 mi West 18.4 mph 39.1 mph N/A Rain Heavy Rain
9:38 PM 60.8 °F 55.4 °F 82% 29.59 in 0.6 mi West 6.9 mph 39.1 mph N/A Rain Heavy Rain
9:47 PM 62.6 °F 57.2 °F 82% 29.58 in 0.6 mi SSW 12.7 mph - N/A Rain Heavy Rain
9:48 PM 62.6 °F 59.0 °F 88% 29.58 in 1.5 mi SSW 13.8 mph - N/A Rain Heavy Rain
9:52 PM 62.6 °F 57.2 °F 82% 29.59 in 2.5 mi SSE 15.0 mph - N/A Rain Heavy Rain
9:57 PM 60.8 °F 57.2 °F 88% 29.59 in 2.5 mi SE 13.8 mph - N/A   Unknown
9:59 PM 60.8 °F 57.2 °F 88% 29.59 in 3.5 mi SSE 15.0 mph - N/A   Unknown
10:00 PM 60.8 °F 57.2 °F 88% 29.59 in 3.0 mi SSE 13.8 mph - N/A   Unknown
10:03 PM 60.8 °F 57.2 °F 88% 29.59 in 2.5 mi SSE 13.8 mph - N/A   Unknown
10:04 PM 60.8 °F 57.2 °F 88% 29.59 in 2.2 mi SSE 13.8 mph - N/A Rain Light Rain
10:10 PM 60.8 °F 57.2 °F 88% 29.60 in 1.8 mi South 26.5 mph 35.7 mph N/A Rain Rain
10:12 PM 60.8 °F 57.2 °F 88% 29.60 in 1.2 mi SSW 32.2 mph 40.3 mph N/A Rain Rain
10:14 PM 59.0 °F 57.2 °F 94% 29.61 in 0.8 mi SW 31.1 mph 40.3 mph N/A   Unknown
10:15 PM 59.0 °F 57.2 °F 94% 29.60 in 0.6 mi WSW 27.6 mph 40.3 mph N/A   Unknown
10:23 PM 59.0 °F 57.2 °F 94% 29.61 in 0.5 mi South 15.0 mph 36.8 mph N/A   Unknown
10:27 PM 59.0 °F 57.2 °F 94% 29.60 in 0.6 mi SSW 8.1 mph 18.4 mph N/A Rain Heavy Rain
10:29 PM 59.0 °F 57.2 °F 94% 29.59 in 1.0 mi SSW 6.9 mph 18.4 mph N/A Rain Heavy Rain
10:49 PM 59.0 °F 57.2 °F 94% 29.58 in 1.4 mi South 8.1 mph - N/A Rain Rain
11:00 PM 57.2 °F 57.2 °F 100% 29.58 in 1.8 mi South 6.9 mph - N/A Rain Rain
11:17 PM 59.0 °F 57.2 °F 94% 29.59 in 1.4 mi SSW 11.5 mph - N/A Rain Rain
11:35 PM 59.0 °F 57.2 °F 94% 29.58 in 1.2 mi SSE 10.4 mph - N/A Rain Light Rain
11:37 PM 59.0 °F 57.2 °F 94% 29.58 in 1.2 mi SSE 12.7 mph - N/A Rain Light Rain
11:42 PM 59.0 °F 57.2 °F 94% 29.58 in 1.4 mi SSE 10.4 mph - N/A Rain Light Rain
11:51 PM 59.0 °F 57.2 °F 94% 29.57 in 1.6 mi SE 10.4 mph - N/A Rain Light Rain
11:52 PM 59.0 °F 57.2 °F 94% 29.57 in 1.5 mi SE 11.5 mph - N/A Rain Light Rain
11:53 PM 59.0 °F 57.2 °F 94% 29.57 in 1.4 mi ESE 11.5 mph - N/A Rain Rain